Location: Aiyede
(8.4833°N, 4.4500°E)
Time: 09:11:39
(UTC+00:00)

SL-24 R/B - Pass Details

Date: 24 September 2020
Orbit: 625 x 1075 km, 98.0° (Epoch: 21 October)

Event Time Altitude Azimuth Distance (km) Brightness Sun altitude
Rises 18:01:49 0° 158° (SSE) 2,921 7.3 -7.0°
Reaches altitude 10° 18:04:03 10° 153° (SSE) 1,998 6.4 -7.6°
Maximum altitude 18:08:12 50° 77° (ENE) 800 4.3 -8.6°
Drops below altitude 10° 18:12:25 10° 2° (N) 2,029 6.7 -9.6°
Sets 18:14:42 0° 357° (N) 2,971 7.6 -10.2°
